Vancouver, British Columbia

5:06 AM PDT on July 28, 2017 (GMT -0700)
Vancouver International Airport

Weather History for CYVR - October, 2013

Change the Weather History Date:

Sunday, October 13, 2013

  Actual Average Record
Temperature  
Mean Temperature 46 °F -  
Max Temperature 54 °F 53 °F 61 °F (2014)
Min Temperature 38 °F 41 °F 38 °F (2013)
Degree Days  
Heating Degree Days 19    
Moisture  
Dew Point 43 °F    
Average Humidity 85    
Maximum Humidity 93    
Minimum Humidity 63    
Precipitation  
Precipitation 0.00 in 0.18 in - ()
Sea Level Pressure  
Sea Level Pressure 30.32 in    
Wind  
Wind Speed 4 mph ()    
Max Wind Speed 9 mph    
Max Gust Speed -    
Visibility 17.4 miles    
Events Fog    
Averages and records for this station are not official NWS values.
T = Trace of Precipitation, MM = Missing Value Source: Averaged Metar Reports

Daily Weather History Graph

Daily Weather History Graph

Search for Another Location

Airport or City:

Trip Planner

Search our weather history database for the weather conditions in past years. The results will help you decide how hot, cold, wet, or windy it might be!

Date:

Astronomy

Oct. 13, 2013 Rise Set
Actual Time 7:30 AM PDT 6:25 PM PDT
Civil Twilight 6:58 AM PDT 6:57 PM PDT
Nautical Twilight 6:22 AM PDT 7:34 PM PDT
Astronomical Twilight 5:45 AM PDT 8:11 PM PDT
Moon 3:45 PM PDT (10/13) 1:19 AM PDT (10/13)
Length of Visible Light 11h 58m
Length of Day
10h 54m
Waxing Gibbous, 70% of the Moon is Illuminated
Oct 13
Waxing Gibbous
Oct 18
Full
Oct 26
Last Quarter
Nov 3
New
Nov 9
First Quarter

Hourly Weather History & Observations

Time (PDT) Temp. Windchill Dew Point Humidity Pressure Visibility Wind Dir Wind Speed Gust Speed Precip Events Conditions
12:00 AM 44.6 °F 43.1 °F 42.8 °F 93% 30.23 in 15.0 mi NE 3.5 mph - N/A   Clear
1:00 AM 42.8 °F 40.1 °F 41.0 °F 93% 30.25 in 15.0 mi North 4.6 mph - N/A   Clear
2:00 AM 44.6 °F 43.1 °F 41.0 °F 87% 30.26 in 15.0 mi NE 3.5 mph - N/A   Partly Cloudy
3:00 AM 41.0 °F - 39.2 °F 93% 30.27 in 15.0 mi East 2.3 mph - N/A   Partly Cloudy
4:00 AM 39.2 °F 35.9 °F 37.4 °F 93% 30.27 in 15.0 mi ESE 4.6 mph - N/A   Clear
5:00 AM 40 °F - 38 °F 90% 30.28 in 15 mi East 4.6 mph - -  
5:00 AM 39.2 °F 35.9 °F 37.4 °F 93% 30.28 in 15.0 mi East 4.6 mph - N/A   Clear
6:00 AM 41.0 °F - 39.2 °F 93% 30.29 in 15.0 mi NE 2.3 mph - N/A   Scattered Clouds
7:00 AM 42.8 °F 41.1 °F 41.0 °F 93% 30.30 in 15.0 mi East 3.5 mph - N/A Fog Shallow Fog
8:00 AM 42.8 °F - 41.0 °F 93% 30.31 in 15.0 mi East 2.3 mph - N/A Fog Shallow Fog
9:00 AM 46.4 °F - 42.8 °F 87% 30.32 in 20.0 mi Calm Calm - N/A   Scattered Clouds
10:00 AM 50.0 °F - 42.8 °F 76% 30.34 in 20.0 mi Calm Calm - N/A   Scattered Clouds
11:00 AM 52 °F - 43 °F 63% 30.34 in 19 mi SSW 2.3 mph - -   Scattered Clouds
11:00 AM 51.8 °F - 42.8 °F 71% 30.34 in 20.0 mi SSW 2.3 mph - N/A   Scattered Clouds
12:00 PM 53.6 °F - 42.8 °F 67% 30.34 in 20.0 mi WSW 6.9 mph - N/A   Scattered Clouds
1:00 PM 53.6 °F - 44.6 °F 72% 30.33 in 30.0 mi WNW 9.2 mph - N/A   Partly Cloudy
2:00 PM 53.6 °F - 46.4 °F 77% 30.32 in 30.0 mi West 9.2 mph - N/A   Scattered Clouds
3:00 PM 53.6 °F - 48.2 °F 82% 30.33 in 30.0 mi West 9.2 mph - N/A   Partly Cloudy
4:00 PM 53.6 °F - 48.2 °F 82% 30.32 in 30.0 mi WNW 6.9 mph - N/A   Partly Cloudy
5:00 PM 53 °F - 47 °F 73% 30.33 in 28 mi WNW 5.8 mph - -   Clear
5:00 PM 53.6 °F - 46.4 °F 77% 30.32 in 30.0 mi WNW 5.8 mph - N/A   Partly Cloudy
6:00 PM 50.0 °F - 46.4 °F 87% 30.33 in 30.0 mi WNW 3.5 mph - N/A   Partly Cloudy
7:00 PM 48.2 °F - 46.4 °F 93% 30.34 in 30.0 mi WNW 3.5 mph - N/A   Partly Cloudy
8:00 PM 46.4 °F 45.2 °F 44.6 °F 93% 30.34 in 20.0 mi North 3.5 mph - N/A   Partly Cloudy
9:00 PM 46.4 °F 45.2 °F 44.6 °F 93% 30.35 in 20.0 mi NNE 3.5 mph - N/A   Partly Cloudy
10:00 PM 46.4 °F - 42.8 °F 87% 30.37 in 20.0 mi North 2.3 mph - N/A   Partly Cloudy
11:00 PM 44 °F - 42 °F 92% 30.38 in 19 mi East 3.5 mph - -  
11:00 PM 44.6 °F 43.1 °F 42.8 °F 93% 30.38 in 20.0 mi East 3.5 mph - N/A   Clear